Time,TemperatureF,DewpointF,PressureIn,WindDirection,WindDirectionDegrees,WindSpeedMPH,WindSpeedGustMPH,Humidity,HourlyPrecipIn,Conditions,Clouds,dailyrainin,SoftwareType,DateUTC
2013-04-10 00:00:00,70.2,48.5,29.87,South,173,2.0,9.0,46,0.00,,---,0.00,VWS V14.01,2013-04-10 04:00:00,
2013-04-10 00:01:00,70.3,48.6,29.87,South,173,1.0,9.0,46,0.00,,---,0.00,VWS V14.01,2013-04-10 04:01:00,
2013-04-10 00:02:00,70.4,48.7,29.87,SSW,207,4.0,10.0,46,0.00,,---,0.00,VWS V14.01,2013-04-10 04:02:00,
2013-04-10 00:03:00,70.4,48.7,29.87,SSW,207,3.0,10.0,46,0.00,,---,0.00,VWS V14.01,2013-04-10 04:03:00,
2013-04-10 00:08:00,70.7,49.5,29.87,SSW,205,3.0,11.0,47,0.00,,---,0.00,VWS V14.01,2013-04-10 04:08:00,
2013-04-10 00:13:00,70.8,49.6,29.87,SSW,212,5.0,11.0,47,0.00,,---,0.00,VWS V14.01,2013-04-10 04:13:00,
2013-04-10 00:15:00,70.9,49.7,29.87,WSW,242,1.0,11.0,47,0.00,,---,0.00,VWS V14.01,2013-04-10 04:15:00,
2013-04-10 00:18:00,70.9,49.7,29.87,SSW,209,4.0,7.0,47,0.00,,---,0.00,VWS V14.01,2013-04-10 04:18:00,
2013-04-10 00:24:00,71.2,50.0,29.87,SW,231,7.0,8.0,47,0.00,,---,0.00,VWS V14.01,2013-04-10 04:24:00,
2013-04-10 00:29:00,71.2,50.5,29.86,WNW,283,4.0,9.0,48,0.00,,---,0.00,VWS V14.01,2013-04-10 04:29:00,
2013-04-10 00:30:00,71.2,50.5,29.87,SSW,211,9.0,11.0,48,0.00,,---,0.00,VWS V14.01,2013-04-10 04:30:00,
2013-04-10 00:34:00,71.3,50.6,29.86,SW,229,6.0,13.0,48,0.00,,---,0.00,VWS V14.01,2013-04-10 04:34:00,
2013-04-10 00:39:00,71.2,50.5,29.86,WSW,240,6.0,13.0,48,0.00,,---,0.00,VWS V14.01,2013-04-10 04:39:00,
2013-04-10 00:44:00,71.2,51.1,29.86,SW,227,4.0,15.0,49,0.00,,---,0.00,VWS V14.01,2013-04-10 04:44:00,
2013-04-10 00:45:00,71.2,51.1,29.86,SW,234,4.0,15.0,49,0.00,,---,0.00,VWS V14.01,2013-04-10 04:45:00,
2013-04-10 00:50:00,71.2,51.1,29.86,WSW,238,6.0,11.0,49,0.00,,---,0.00,VWS V14.01,2013-04-10 04:50:00,
2013-04-10 00:55:00,71.2,51.1,29.86,WSW,246,5.0,11.0,49,0.00,,---,0.00,VWS V14.01,2013-04-10 04:55:00,
2013-04-10 01:00:00,71.0,51.5,29.85,SSW,212,3.0,12.0,50,0.00,,---,0.00,VWS V14.01,2013-04-10 05:00:00,
2013-04-10 01:05:00,70.9,51.3,29.85,WSW,246,6.0,12.0,50,0.00,,---,0.00,VWS V14.01,2013-04-10 05:05:00,
2013-04-10 01:10:00,70.9,51.3,29.85,SW,235,5.0,12.0,50,0.00,,---,0.00,VWS V14.01,2013-04-10 05:10:00,
2013-04-10 01:15:00,70.7,51.7,29.84,SW,225,1.0,12.0,51,0.00,,---,0.00,VWS V14.01,2013-04-10 05:15:00,
2013-04-10 01:21:00,70.6,51.6,29.84,WSW,250,5.0,12.0,51,0.00,,---,0.00,VWS V14.01,2013-04-10 05:21:00,
2013-04-10 01:26:00,70.4,51.4,29.84,SSW,211,4.0,12.0,51,0.00,,---,0.00,VWS V14.01,2013-04-10 05:26:00,
2013-04-10 01:30:00,70.3,51.9,29.84,SSW,208,5.0,12.0,52,0.00,,---,0.00,VWS V14.01,2013-04-10 05:30:00,
2013-04-10 01:32:00,70.3,51.9,29.84,SSW,213,4.0,8.0,52,0.00,,---,0.00,VWS V14.01,2013-04-10 05:32:00,
2013-04-10 01:37:00,70.2,51.8,29.84,WSW,241,7.0,10.0,52,0.00,,---,0.00,VWS V14.01,2013-04-10 05:37:00,
2013-04-10 01:42:00,70.1,51.7,29.84,SSW,210,2.0,10.0,52,0.00,,---,0.00,VWS V14.01,2013-04-10 05:42:00,
2013-04-10 01:45:00,69.9,51.5,29.84,SW,230,4.0,10.0,52,0.00,,---,0.00,VWS V14.01,2013-04-10 05:45:00,
2013-04-10 01:47:00,69.9,51.5,29.84,WSW,249,7.0,8.0,52,0.00,,---,0.00,VWS V14.01,2013-04-10 05:47:00,
2013-04-10 01:53:00,69.7,51.3,29.84,SW,221,1.0,8.0,52,0.00,,---,0.00,VWS V14.01,2013-04-10 05:53:00,
2013-04-10 01:58:00,69.5,51.6,29.84,WSW,249,2.0,8.0,53,0.00,,---,0.00,VWS V14.01,2013-04-10 05:58:00,
2013-04-10 02:00:00,69.4,51.5,29.84,SSW,202,3.0,8.0,53,0.00,,---,0.00,VWS V14.01,2013-04-10 06:00:00,
2013-04-10 02:03:00,69.3,51.5,29.84,WSW,241,2.0,5.0,53,0.00,,---,0.00,VWS V14.01,2013-04-10 06:03:00,
2013-04-10 02:08:00,69.2,51.4,29.84,SSW,213,2.0,7.0,53,0.00,,---,0.00,VWS V14.01,2013-04-10 06:08:00,
2013-04-10 02:13:00,69.2,51.9,29.83,WSW,257,3.0,9.0,54,0.00,,---,0.00,VWS V14.01,2013-04-10 06:13:00,
2013-04-10 02:15:00,69.1,51.8,29.83,WSW,255,3.0,9.0,54,0.00,,---,0.00,VWS V14.01,2013-04-10 06:15:00,
2013-04-10 02:19:00,69.0,51.7,29.83,SW,220,2.0,5.0,54,0.00,,---,0.00,VWS V14.01,2013-04-10 06:19:00,
2013-04-10 02:24:00,68.9,51.6,29.83,SW,232,2.0,6.0,54,0.00,,---,0.00,VWS V14.01,2013-04-10 06:24:00,
2013-04-10 02:29:00,68.9,51.6,29.83,SW,220,2.0,7.0,54,0.00,,---,0.00,VWS V14.01,2013-04-10 06:29:00,
2013-04-10 02:30:00,68.8,51.5,29.83,SW,230,3.0,7.0,54,0.00,,---,0.00,VWS V14.01,2013-04-10 06:30:00,
2013-04-10 02:34:00,68.7,51.9,29.82,SW,233,3.0,7.0,55,0.00,,---,0.00,VWS V14.01,2013-04-10 06:34:00,
2013-04-10 02:39:00,68.6,51.8,29.82,SW,229,4.0,9.0,55,0.00,,---,0.00,VWS V14.01,2013-04-10 06:39:00,
2013-04-10 02:44:00,68.3,51.5,29.81,SW,224,5.0,9.0,55,0.00,,---,0.00,VWS V14.01,2013-04-10 06:44:00,
2013-04-10 02:45:00,68.3,51.5,29.81,SSW,198,4.0,9.0,55,0.00,,---,0.00,VWS V14.01,2013-04-10 06:45:00,
2013-04-10 02:50:00,68.0,51.7,29.81,WSW,245,1.0,7.0,56,0.00,,---,0.00,VWS V14.01,2013-04-10 06:50:00,
2013-04-10 02:55:00,67.7,51.5,29.81,SW,224,0.0,7.0,56,0.00,,---,0.00,VWS V14.01,2013-04-10 06:55:00,
2013-04-10 03:00:00,67.7,51.9,29.82,WSW,250,4.0,8.0,57,0.00,,---,0.00,VWS V14.01,2013-04-10 07:00:00,
2013-04-10 03:05:00,67.8,51.5,29.82,WSW,244,1.0,7.0,56,0.00,,---,0.00,VWS V14.01,2013-04-10 07:05:00,
2013-04-10 03:10:00,67.5,51.8,29.82,WSW,256,4.0,7.0,57,0.00,,---,0.00,VWS V14.01,2013-04-10 07:10:00,
2013-04-10 03:15:00,67.5,51.8,29.82,SW,228,5.0,8.0,57,0.00,,---,0.00,VWS V14.01,2013-04-10 07:15:00,
2013-04-10 03:20:00,67.4,51.7,29.82,WSW,244,2.0,7.0,57,0.00,,---,0.00,VWS V14.01,2013-04-10 07:20:00,
2013-04-10 03:26:00,67.1,51.8,29.82,SW,225,5.0,7.0,58,0.00,,---,0.00,VWS V14.01,2013-04-10 07:26:00,
2013-04-10 03:30:00,66.9,51.7,29.82,WSW,246,3.0,7.0,58,0.00,,---,0.00,VWS V14.01,2013-04-10 07:30:00,
2013-04-10 03:31:00,66.9,51.7,29.82,WSW,248,2.0,3.0,58,0.00,,---,0.00,VWS V14.01,2013-04-10 07:31:00,
2013-04-10 03:37:00,66.8,51.6,29.82,SW,234,2.0,6.0,58,0.00,,---,0.00,VWS V14.01,2013-04-10 07:37:00,
2013-04-10 03:42:00,66.7,51.5,29.82,West,263,4.0,9.0,58,0.00,,---,0.00,VWS V14.01,2013-04-10 07:42:00,
2013-04-10 03:45:00,66.6,51.8,29.82,SW,225,6.0,9.0,59,0.00,,---,0.00,VWS V14.01,2013-04-10 07:45:00,
2013-04-10 03:47:00,66.6,51.8,29.81,SW,232,4.0,6.0,59,0.00,,---,0.00,VWS V14.01,2013-04-10 07:47:00,
2013-04-10 03:52:00,66.5,51.8,29.82,SW,223,4.0,8.0,59,0.00,,---,0.00,VWS V14.01,2013-04-10 07:52:00,
2013-04-10 03:57:00,66.3,51.6,29.81,WSW,244,4.0,8.0,59,0.00,,---,0.00,VWS V14.01,2013-04-10 07:57:00,
2013-04-10 04:00:00,66.4,51.7,29.81,SW,222,7.0,8.0,59,0.00,,---,0.00,VWS V14.01,2013-04-10 08:00:00,
2013-04-10 04:02:00,66.4,51.7,29.81,SSW,213,7.0,8.0,59,0.00,,---,0.00,VWS V14.01,2013-04-10 08:02:00,
2013-04-10 04:07:00,66.4,51.7,29.82,SSW,207,4.0,8.0,59,0.00,,---,0.00,VWS V14.01,2013-04-10 08:07:00,
2013-04-10 04:12:00,66.4,51.7,29.82,West,263,1.0,8.0,59,0.00,,---,0.00,VWS V14.01,2013-04-10 08:12:00,
2013-04-10 04:15:00,66.4,51.7,29.83,North,5,6.0,8.0,59,0.00,,---,0.00,VWS V14.01,2013-04-10 08:15:00,
2013-04-10 04:18:00,66.2,51.5,29.84,NW,326,8.0,14.0,59,0.00,,---,0.00,VWS V14.01,2013-04-10 08:18:00,
2013-04-10 04:23:00,65.9,51.6,29.84,WNW,295,3.0,15.0,60,0.00,,---,0.00,VWS V14.01,2013-04-10 08:23:00,
2013-04-10 04:28:00,65.9,51.6,29.84,North,355,4.0,15.0,60,0.00,,---,0.00,VWS V14.01,2013-04-10 08:28:00,
2013-04-10 04:30:00,65.9,51.6,29.84,NNW,342,0.0,15.0,60,0.00,,---,0.00,VWS V14.01,2013-04-10 08:30:00,
2013-04-10 04:33:00,65.9,51.6,29.85,NNE,15,0.0,6.0,60,0.00,,---,0.00,VWS V14.01,2013-04-10 08:33:00,
2013-04-10 04:38:00,65.8,51.5,29.84,NNE,15,0.0,6.0,60,0.00,,---,0.00,VWS V14.01,2013-04-10 08:38:00,
2013-04-10 04:44:00,65.7,51.5,29.84,NNE,15,0.0,6.0,60,0.00,,---,0.00,VWS V14.01,2013-04-10 08:44:00,
2013-04-10 04:45:00,65.7,51.5,29.85,NNE,15,0.0,6.0,60,0.00,,---,0.00,VWS V14.01,2013-04-10 08:45:00,
2013-04-10 04:49:00,65.5,51.3,29.85,NNE,15,0.0,1.0,60,0.00,,---,0.00,VWS V14.01,2013-04-10 08:49:00,
2013-04-10 04:54:00,65.2,51.0,29.85,NNE,16,0.0,1.0,60,0.00,,---,0.00,VWS V14.01,2013-04-10 08:54:00,
2013-04-10 04:59:00,64.7,51.0,29.85,NNE,15,0.0,1.0,61,0.00,,---,0.00,VWS V14.01,2013-04-10 08:59:00,
2013-04-10 05:00:00,64.4,50.7,29.85,NNE,16,0.0,1.0,61,0.00,,---,0.00,VWS V14.01,2013-04-10 09:00:00,
2013-04-10 05:04:00,64.1,50.8,29.85,ENE,61,4.0,5.0,62,0.00,,---,0.00,VWS V14.01,2013-04-10 09:04:00,
2013-04-10 05:10:00,64.0,50.3,29.85,NE,49,4.0,5.0,61,0.00,,---,0.00,VWS V14.01,2013-04-10 09:10:00,
2013-04-10 05:15:00,63.6,49.0,29.85,North,10,0.0,7.0,59,0.00,,---,0.00,VWS V14.01,2013-04-10 09:15:00,
2013-04-10 05:20:00,63.2,47.3,29.85,NE,48,6.0,8.0,56,0.00,,---,0.00,VWS V14.01,2013-04-10 09:20:00,
2013-04-10 05:25:00,62.8,46.4,29.86,ENE,57,4.0,8.0,55,0.00,,---,0.00,VWS V14.01,2013-04-10 09:25:00,
2013-04-10 05:30:00,62.4,46.0,29.87,ENE,67,0.0,8.0,55,0.00,,---,0.00,VWS V14.01,2013-04-10 09:30:00,
2013-04-10 05:35:00,61.9,45.6,29.87,NE,38,5.0,7.0,55,0.00,,---,0.00,VWS V14.01,2013-04-10 09:35:00,
2013-04-10 05:40:00,61.5,44.7,29.87,NNE,16,1.0,9.0,54,0.00,,---,0.00,VWS V14.01,2013-04-10 09:40:00,
2013-04-10 05:45:00,61.1,44.8,29.87,NE,40,1.0,9.0,55,0.00,,---,0.00,VWS V14.01,2013-04-10 09:45:00,
2013-04-10 05:51:00,60.7,44.5,29.87,NE,39,3.0,4.0,55,0.00,,---,0.00,VWS V14.01,2013-04-10 09:51:00,
2013-04-10 05:56:00,60.4,44.2,29.87,ENE,59,3.0,7.0,55,0.00,,---,0.00,VWS V14.01,2013-04-10 09:56:00,
2013-04-10 06:00:00,60.3,44.1,29.87,ENE,67,0.0,7.0,55,0.00,,---,0.00,VWS V14.01,2013-04-10 10:00:00,
2013-04-10 06:02:00,60.3,44.1,29.87,ENE,67,0.0,2.0,55,0.00,,---,0.00,VWS V14.01,2013-04-10 10:02:00,
2013-04-10 06:07:00,60.1,43.9,29.87,ENE,66,0.0,4.0,55,0.00,,---,0.00,VWS V14.01,2013-04-10 10:07:00,
2013-04-10 06:12:00,59.8,44.1,29.88,ENE,65,0.0,4.0,56,0.00,,---,0.00,VWS V14.01,2013-04-10 10:12:00,
2013-04-10 06:15:00,59.5,43.8,29.88,ENE,65,0.0,4.0,56,0.00,,---,0.00,VWS V14.01,2013-04-10 10:15:00,
2013-04-10 06:17:00,59.4,43.7,29.88,ENE,65,0.0,0.0,56,0.00,,---,0.00,VWS V14.01,2013-04-10 10:17:00,
2013-04-10 06:22:00,59.2,43.5,29.89,ENE,63,0.0,4.0,56,0.00,,---,0.00,VWS V14.01,2013-04-10 10:22:00,
2013-04-10 06:27:00,59.0,43.8,29.89,NE,40,2.0,4.0,57,0.00,,---,0.00,VWS V14.01,2013-04-10 10:27:00,
2013-04-10 06:30:00,59.0,43.8,29.89,NE,46,0.0,4.0,57,0.00,,---,0.00,VWS V14.01,2013-04-10 10:30:00,
2013-04-10 06:32:00,59.0,43.8,29.89,NE,46,0.0,2.0,57,0.00,,---,0.00,VWS V14.01,2013-04-10 10:32:00,
2013-04-10 06:37:00,59.0,43.8,29.89,NE,46,0.0,4.0,57,0.00,,---,0.00,VWS V14.01,2013-04-10 10:37:00,
2013-04-10 06:42:00,59.0,43.8,29.89,NE,46,0.0,4.0,57,0.00,,---,0.00,VWS V14.01,2013-04-10 10:42:00,
2013-04-10 06:45:00,58.8,43.6,29.90,NE,46,0.0,4.0,57,0.00,,---,0.00,VWS V14.01,2013-04-10 10:45:00,
2013-04-10 06:48:00,58.7,43.5,29.90,NE,48,0.0,0.0,57,0.00,,---,0.00,VWS V14.01,2013-04-10 10:48:00,
2013-04-10 06:53:00,58.5,43.3,29.89,NE,48,0.0,0.0,57,0.00,,---,0.00,VWS V14.01,2013-04-10 10:53:00,
2013-04-10 06:58:00,58.3,43.6,29.90,NE,35,0.0,1.0,58,0.00,,---,0.00,VWS V14.01,2013-04-10 10:58:00,
2013-04-10 07:00:00,58.1,43.9,29.90,NE,35,0.0,1.0,59,0.00,,---,0.00,VWS V14.01,2013-04-10 11:00:00,
2013-04-10 07:03:00,58.0,43.8,29.91,NE,35,0.0,0.0,59,0.00,,---,0.00,VWS V14.01,2013-04-10 11:03:00,
2013-04-10 07:08:00,58.1,43.4,29.91,NE,35,0.0,1.0,58,0.00,,---,0.00,VWS V14.01,2013-04-10 11:08:00,
2013-04-10 07:13:00,58.6,43.9,29.91,NE,35,0.0,1.0,58,0.00,,---,0.00,VWS V14.01,2013-04-10 11:13:00,
2013-04-10 07:15:00,58.7,44.0,29.91,North,360,0.0,1.0,58,0.00,,---,0.00,VWS V14.01,2013-04-10 11:15:00,
2013-04-10 07:19:00,58.8,44.1,29.91,NNE,25,0.0,0.0,58,0.00,,---,0.00,VWS V14.01,2013-04-10 11:19:00,
2013-04-10 07:24:00,58.8,44.5,29.91,NNE,22,0.0,1.0,59,0.00,,---,0.00,VWS V14.01,2013-04-10 11:24:00,
2013-04-10 07:29:00,59.0,44.7,29.91,NNE,22,0.0,1.0,59,0.00,,---,0.00,VWS V14.01,2013-04-10 11:29:00,
2013-04-10 07:30:00,59.0,44.7,29.91,NNE,22,0.0,1.0,59,0.00,,---,0.00,VWS V14.01,2013-04-10 11:30:00,
2013-04-10 07:34:00,59.0,44.3,29.91,NNE,22,0.0,0.0,58,0.00,,---,0.00,VWS V14.01,2013-04-10 11:34:00,
2013-04-10 07:39:00,59.3,44.1,29.91,NNE,22,0.0,0.0,57,0.00,,---,0.00,VWS V14.01,2013-04-10 11:39:00,
2013-04-10 07:45:00,59.8,44.1,29.91,NNE,22,0.0,0.0,56,0.00,,---,0.00,VWS V14.01,2013-04-10 11:45:00,
2013-04-10 07:50:00,59.9,44.2,29.92,NNE,22,0.0,0.0,56,0.00,,---,0.00,VWS V14.01,2013-04-10 11:50:00,
2013-04-10 07:55:00,59.8,44.1,29.92,NNE,22,0.0,2.0,56,0.00,,---,0.00,VWS V14.01,2013-04-10 11:55:00,
2013-04-10 08:00:00,59.9,44.2,29.92,NNE,22,0.0,2.0,56,0.00,,---,0.00,VWS V14.01,2013-04-10 12:00:00,
2013-04-10 08:05:00,60.0,44.3,29.93,NNE,28,0.0,2.0,56,0.00,,---,0.00,VWS V14.01,2013-04-10 12:05:00,
2013-04-10 08:11:00,60.1,44.4,29.93,ENE,59,0.0,2.0,56,0.00,,---,0.00,VWS V14.01,2013-04-10 12:11:00,
2013-04-10 08:15:00,60.2,44.5,29.92,ENE,58,0.0,2.0,56,0.00,,---,0.00,VWS V14.01,2013-04-10 12:15:00,
2013-04-10 08:16:00,60.2,44.5,29.92,ENE,58,0.0,2.0,56,0.00,,---,0.00,VWS V14.01,2013-04-10 12:16:00,
2013-04-10 08:21:00,60.3,44.6,29.92,ENE,58,0.0,4.0,56,0.00,,---,0.00,VWS V14.01,2013-04-10 12:21:00,
2013-04-10 08:27:00,60.4,44.7,29.93,ENE,58,0.0,4.0,56,0.00,,---,0.00,VWS V14.01,2013-04-10 12:27:00,
2013-04-10 08:30:00,60.5,44.7,29.93,ENE,58,0.0,4.0,56,0.00,,---,0.00,VWS V14.01,2013-04-10 12:30:00,
2013-04-10 08:32:00,60.6,44.8,29.93,ENE,58,0.0,0.0,56,0.00,,---,0.00,VWS V14.01,2013-04-10 12:32:00,
2013-04-10 08:37:00,60.8,45.0,29.93,ENE,58,0.0,0.0,56,0.00,,---,0.00,VWS V14.01,2013-04-10 12:37:00,
2013-04-10 08:42:00,61.0,45.2,29.93,ENE,58,0.0,1.0,56,0.00,,---,0.00,VWS V14.01,2013-04-10 12:42:00,
2013-04-10 08:45:00,61.1,44.8,29.93,ENE,58,0.0,1.0,55,0.00,,---,0.00,VWS V14.01,2013-04-10 12:45:00,
2013-04-10 08:48:00,61.1,45.3,29.93,ENE,58,0.0,1.0,56,0.00,,---,0.00,VWS V14.01,2013-04-10 12:48:00,
2013-04-10 08:53:00,61.3,45.0,29.93,ENE,58,0.0,1.0,55,0.00,,---,0.00,VWS V14.01,2013-04-10 12:53:00,
2013-04-10 08:58:00,61.4,45.1,29.92,ENE,59,0.0,3.0,55,0.00,,---,0.00,VWS V14.01,2013-04-10 12:58:00,
2013-04-10 09:00:00,61.4,45.1,29.92,ENE,59,0.0,3.0,55,0.00,,---,0.00,VWS V14.01,2013-04-10 13:00:00,
2013-04-10 09:03:00,61.5,45.2,29.92,ENE,59,0.0,1.0,55,0.00,,---,0.00,VWS V14.01,2013-04-10 13:03:00,
2013-04-10 09:08:00,61.9,45.6,29.92,ENE,59,0.0,1.0,55,0.00,,---,0.00,VWS V14.01,2013-04-10 13:08:00,
2013-04-10 09:13:00,62.9,46.0,29.91,ENE,59,0.0,2.0,54,0.00,,---,0.00,VWS V14.01,2013-04-10 13:13:00,
2013-04-10 09:15:00,63.3,45.9,29.91,SE,136,0.0,4.0,53,0.00,,---,0.00,VWS V14.01,2013-04-10 13:15:00,
2013-04-10 09:18:00,63.8,45.9,29.91,SE,144,0.0,4.0,52,0.00,,---,0.00,VWS V14.01,2013-04-10 13:18:00,
2013-04-10 09:24:00,64.3,46.3,29.91,SE,144,0.0,4.0,52,0.00,,---,0.00,VWS V14.01,2013-04-10 13:24:00,
2013-04-10 09:29:00,64.7,46.2,29.91,SE,144,0.0,5.0,51,0.00,,---,0.00,VWS V14.01,2013-04-10 13:29:00,
2013-04-10 09:30:00,64.8,46.3,29.91,SE,144,0.0,5.0,51,0.00,,---,0.00,VWS V14.01,2013-04-10 13:30:00,
2013-04-10 09:34:00,65.0,46.5,29.91,SE,144,0.0,0.0,51,0.00,,---,0.00,VWS V14.01,2013-04-10 13:34:00,
2013-04-10 09:39:00,65.4,46.3,29.91,SE,144,0.0,0.0,50,0.00,,---,0.00,VWS V14.01,2013-04-10 13:39:00,
2013-04-10 09:44:00,65.7,46.6,29.91,SE,144,0.0,1.0,50,0.00,,---,0.00,VWS V14.01,2013-04-10 13:44:00,
2013-04-10 09:45:00,65.9,46.8,29.91,SE,144,0.0,1.0,50,0.00,,---,0.00,VWS V14.01,2013-04-10 13:45:00,
2013-04-10 09:49:00,66.4,46.7,29.91,SE,144,0.0,0.0,49,0.00,,---,0.00,VWS V14.01,2013-04-10 13:49:00,
2013-04-10 09:55:00,67.2,47.4,29.91,SE,144,0.0,1.0,49,0.00,,---,0.00,VWS V14.01,2013-04-10 13:55:00,
2013-04-10 10:00:00,67.1,46.8,29.91,SE,144,0.0,1.0,48,0.00,,---,0.00,VWS V14.01,2013-04-10 14:00:00,
2013-04-10 10:05:00,67.1,47.3,29.91,SE,144,0.0,1.0,49,0.00,,---,0.00,VWS V14.01,2013-04-10 14:05:00,
2013-04-10 10:10:00,67.3,47.5,29.91,SE,144,0.0,1.0,49,0.00,,---,0.00,VWS V14.01,2013-04-10 14:10:00,
2013-04-10 10:15:00,68.1,47.7,29.91,SE,144,0.0,2.0,48,0.00,,---,0.00,VWS V14.01,2013-04-10 14:15:00,
2013-04-10 10:20:00,68.9,47.9,29.90,SE,134,1.0,3.0,47,0.00,,---,0.00,VWS V14.01,2013-04-10 14:20:00,
2013-04-10 10:26:00,68.9,47.9,29.90,SE,140,3.0,4.0,47,0.00,,---,0.00,VWS V14.01,2013-04-10 14:26:00,
2013-04-10 10:30:00,69.2,48.1,29.90,SSE,160,0.0,4.0,47,0.00,,---,0.00,VWS V14.01,2013-04-10 14:30:00,
2013-04-10 10:31:00,69.3,48.2,29.90,SSE,160,0.0,0.0,47,0.00,,---,0.00,VWS V14.01,2013-04-10 14:31:00,
2013-04-10 10:37:00,70.1,49.0,29.90,SSE,162,0.0,5.0,47,0.00,,---,0.00,VWS V14.01,2013-04-10 14:37:00,
2013-04-10 10:42:00,70.8,49.0,29.90,SSE,154,0.0,5.0,46,0.00,,---,0.00,VWS V14.01,2013-04-10 14:42:00,
2013-04-10 10:45:00,70.8,49.0,29.90,SE,144,0.0,5.0,46,0.00,,---,0.00,VWS V14.01,2013-04-10 14:45:00,
2013-04-10 10:47:00,71.0,49.2,29.90,SE,144,0.0,1.0,46,0.00,,---,0.00,VWS V14.01,2013-04-10 14:47:00,
2013-04-10 10:52:00,71.9,49.4,29.89,SSE,153,4.0,4.0,45,0.00,,---,0.00,VWS V14.01,2013-04-10 14:52:00,
2013-04-10 10:58:00,72.1,49.6,29.89,ENE,75,0.0,5.0,45,0.00,,---,0.00,VWS V14.01,2013-04-10 14:58:00,
2013-04-10 11:00:00,72.0,49.5,29.89,SE,142,2.0,6.0,45,0.00,,---,0.00,VWS V14.01,2013-04-10 15:00:00,
2013-04-10 11:03:00,72.0,49.5,29.89,SSE,152,2.0,5.0,45,0.00,,---,0.00,VWS V14.01,2013-04-10 15:03:00,
2013-04-10 11:08:00,72.7,50.2,29.90,ESE,103,0.0,5.0,45,0.00,,---,0.00,VWS V14.01,2013-04-10 15:08:00,
2013-04-10 11:13:00,73.2,50.6,29.90,ESE,105,2.0,5.0,45,0.00,,---,0.00,VWS V14.01,2013-04-10 15:13:00,
2013-04-10 11:15:00,73.8,50.5,29.90,SW,230,1.0,5.0,44,0.00,,---,0.00,VWS V14.01,2013-04-10 15:15:00,
2013-04-10 11:18:00,73.8,50.5,29.90,SW,230,0.0,3.0,44,0.00,,---,0.00,VWS V14.01,2013-04-10 15:18:00,
2013-04-10 11:23:00,73.9,51.2,29.90,South,177,1.0,6.0,45,0.00,,---,0.00,VWS V14.01,2013-04-10 15:23:00,
2013-04-10 11:28:00,73.6,50.4,29.90,SE,134,9.0,10.0,44,0.00,,---,0.00,VWS V14.01,2013-04-10 15:28:00,
2013-04-10 11:30:00,72.8,49.6,29.89,SSE,158,6.0,10.0,44,0.00,,---,0.00,VWS V14.01,2013-04-10 15:30:00,
2013-04-10 11:33:00,72.5,50.0,29.89,SE,134,3.0,7.0,45,0.00,,---,0.00,VWS V14.01,2013-04-10 15:33:00,
2013-04-10 11:39:00,73.0,49.8,29.89,SE,144,9.0,10.0,44,0.00,,---,0.00,VWS V14.01,2013-04-10 15:39:00,
2013-04-10 11:44:00,72.1,49.6,29.90,SSE,149,7.0,10.0,45,0.00,,---,0.00,VWS V14.01,2013-04-10 15:44:00,
2013-04-10 11:45:00,71.9,49.4,29.89,SE,136,5.0,10.0,45,0.00,,---,0.00,VWS V14.01,2013-04-10 15:45:00,
2013-04-10 11:49:00,72.1,49.6,29.90,SE,126,6.0,6.0,45,0.00,,---,0.00,VWS V14.01,2013-04-10 15:49:00,
2013-04-10 11:54:00,72.9,50.3,29.90,SSE,161,1.0,6.0,45,0.00,,---,0.00,VWS V14.01,2013-04-10 15:54:00,
2013-04-10 11:59:00,74.2,50.3,29.90,East,92,0.0,6.0,43,0.00,,---,0.00,VWS V14.01,2013-04-10 15:59:00,
2013-04-10 12:00:00,74.6,50.7,29.90,SSE,148,6.0,6.0,43,0.00,,---,0.00,VWS V14.01,2013-04-10 16:00:00,
2013-04-10 12:05:00,75.1,50.5,29.90,ENE,61,2.0,6.0,42,0.00,,---,0.00,VWS V14.01,2013-04-10 16:05:00,
2013-04-10 12:10:00,75.5,50.8,29.90,North,5,0.0,6.0,42,0.00,,---,0.00,VWS V14.01,2013-04-10 16:10:00,
2013-04-10 12:15:00,75.4,50.7,29.90,NNW,330,2.0,6.0,42,0.00,,---,0.00,VWS V14.01,2013-04-10 16:15:00,
2013-04-10 12:21:00,75.3,51.3,29.89,South,177,0.0,2.0,43,0.00,,---,0.00,VWS V14.01,2013-04-10 16:21:00,
2013-04-10 12:27:00,76.3,51.5,29.89,SE,125,4.0,4.0,42,0.00,,---,0.00,VWS V14.01,2013-04-10 16:27:00,
2013-04-10 12:30:00,76.6,51.8,29.89,ESE,110,5.0,7.0,42,0.00,,---,0.00,VWS V14.01,2013-04-10 16:30:00,
2013-04-10 12:32:00,76.7,51.9,29.89,SE,124,0.0,5.0,42,0.00,,---,0.00,VWS V14.01,2013-04-10 16:32:00,
2013-04-10 12:37:00,76.9,51.4,29.88,ENE,58,8.0,8.0,41,0.00,,---,0.00,VWS V14.01,2013-04-10 16:37:00,
2013-04-10 12:42:00,76.8,51.3,29.88,ESE,112,4.0,8.0,41,0.00,,---,0.00,VWS V14.01,2013-04-10 16:42:00,
2013-04-10 12:45:00,77.5,52.0,29.88,SSW,205,3.0,8.0,41,0.00,,---,0.00,VWS V14.01,2013-04-10 16:45:00,
2013-04-10 12:47:00,77.5,52.0,29.88,SSW,207,0.0,3.0,41,0.00,,---,0.00,VWS V14.01,2013-04-10 16:47:00,
2013-04-10 12:52:00,78.1,51.8,29.88,NE,50,0.0,7.0,40,0.00,,---,0.00,VWS V14.01,2013-04-10 16:52:00,
2013-04-10 12:58:00,78.2,51.9,29.88,East,90,6.0,7.0,40,0.00,,---,0.00,VWS V14.01,2013-04-10 16:58:00,
2013-04-10 13:00:00,78.0,51.8,29.88,ENE,64,7.0,8.0,40,0.00,,---,0.00,VWS V14.01,2013-04-10 17:00:00,
2013-04-10 13:03:00,77.9,51.7,29.87,ESE,113,5.0,10.0,40,0.00,,---,0.00,VWS V14.01,2013-04-10 17:03:00,
2013-04-10 13:08:00,77.4,51.2,29.87,ENE,78,3.0,10.0,40,0.00,,---,0.00,VWS V14.01,2013-04-10 17:08:00,
2013-04-10 13:14:00,77.2,51.0,29.87,ENE,78,5.0,12.0,40,0.00,,---,0.00,VWS V14.01,2013-04-10 17:14:00,
2013-04-10 13:15:00,77.1,51.6,29.87,ENE,60,7.0,12.0,41,0.00,,---,0.00,VWS V14.01,2013-04-10 17:15:00,
2013-04-10 13:19:00,77.1,50.9,29.87,ESE,106,14.0,14.0,40,0.00,,---,0.00,VWS V14.01,2013-04-10 17:19:00,
2013-04-10 13:24:00,76.3,50.9,29.88,ENE,78,8.0,14.0,41,0.00,,---,0.00,VWS V14.01,2013-04-10 17:24:00,
2013-04-10 13:29:00,76.5,51.1,29.88,SE,130,10.0,14.0,41,0.00,,---,0.00,VWS V14.01,2013-04-10 17:29:00,
2013-04-10 13:30:00,76.1,50.7,29.88,ESE,113,4.0,14.0,41,0.00,,---,0.00,VWS V14.01,2013-04-10 17:30:00,
2013-04-10 13:34:00,76.2,51.5,29.88,ENE,71,8.0,10.0,42,0.00,,---,0.00,VWS V14.01,2013-04-10 17:34:00,
2013-04-10 13:40:00,76.5,51.1,29.88,SE,141,4.0,13.0,41,0.00,,---,0.00,VWS V14.01,2013-04-10 17:40:00,
2013-04-10 13:45:00,76.2,51.5,29.87,SSE,163,6.0,13.0,42,0.00,,---,0.00,VWS V14.01,2013-04-10 17:45:00,
2013-04-10 13:50:00,75.3,51.3,29.87,SSE,151,6.0,12.0,43,0.00,,---,0.00,VWS V14.01,2013-04-10 17:50:00,
2013-04-10 13:55:00,74.9,50.3,29.87,SSE,160,6.0,14.0,42,0.00,,---,0.00,VWS V14.01,2013-04-10 17:55:00,
2013-04-10 14:00:00,75.1,50.5,29.87,SE,140,9.0,15.0,42,0.00,,---,0.00,VWS V14.01,2013-04-10 18:00:00,
2013-04-10 14:05:00,75.2,49.9,29.86,SE,128,12.0,15.0,41,0.00,,---,0.00,VWS V14.01,2013-04-10 18:05:00,
2013-04-10 14:11:00,73.9,50.0,29.87,SE,138,3.0,15.0,43,0.00,,---,0.00,VWS V14.01,2013-04-10 18:11:00,
2013-04-10 14:15:00,72.0,49.5,29.87,ESE,111,8.0,17.0,45,0.00,,---,0.00,VWS V14.01,2013-04-10 18:15:00,
2013-04-10 14:16:00,72.1,49.6,29.87,SE,128,8.0,17.0,45,0.00,,---,0.00,VWS V14.01,2013-04-10 18:16:00,
2013-04-10 14:21:00,71.5,49.7,29.87,SE,142,8.0,14.0,46,0.00,,---,0.00,VWS V14.01,2013-04-10 18:21:00,
2013-04-10 14:26:00,71.3,49.5,29.87,SSE,150,12.0,16.0,46,0.00,,---,0.00,VWS V14.01,2013-04-10 18:26:00,
2013-04-10 14:30:00,70.8,49.0,29.86,ESE,116,10.0,17.0,46,0.00,,---,0.00,VWS V14.01,2013-04-10 18:30:00,
2013-04-10 14:31:00,70.7,48.9,29.86,ESE,118,12.0,15.0,46,0.00,,---,0.00,VWS V14.01,2013-04-10 18:31:00,
2013-04-10 14:37:00,70.1,49.0,29.86,East,89,10.0,17.0,47,0.00,,---,0.00,VWS V14.01,2013-04-10 18:37:00,
2013-04-10 14:42:00,69.5,49.0,29.86,ESE,112,15.0,17.0,48,0.00,,---,0.00,VWS V14.01,2013-04-10 18:42:00,
2013-04-10 14:45:00,69.4,49.4,29.86,ESE,123,11.0,17.0,49,0.00,,---,0.00,VWS V14.01,2013-04-10 18:45:00,
2013-04-10 14:47:00,69.6,49.6,29.87,ESE,107,8.0,11.0,49,0.00,,---,0.00,VWS V14.01,2013-04-10 18:47:00,
2013-04-10 14:52:00,70.1,49.5,29.86,East,98,7.0,13.0,48,0.00,,---,0.00,VWS V14.01,2013-04-10 18:52:00,
2013-04-10 14:57:00,70.3,49.7,29.86,East,86,8.0,13.0,48,0.00,,---,0.00,VWS V14.01,2013-04-10 18:57:00,
2013-04-10 15:00:00,70.5,49.9,29.86,ENE,71,11.0,13.0,48,0.00,,---,0.00,VWS V14.01,2013-04-10 19:00:00,
2013-04-10 15:02:00,70.2,49.6,29.86,East,88,10.0,14.0,48,0.00,,---,0.00,VWS V14.01,2013-04-10 19:02:00,
2013-04-10 15:07:00,68.9,49.0,29.86,East,84,8.0,16.0,49,0.00,,---,0.00,VWS V14.01,2013-04-10 19:07:00,
2013-04-10 15:13:00,68.7,49.3,29.86,ESE,104,5.0,17.0,50,0.00,,---,0.00,VWS V14.01,2013-04-10 19:13:00,
2013-04-10 15:15:00,69.1,49.7,29.87,ESE,110,9.0,17.0,50,0.00,,---,0.00,VWS V14.01,2013-04-10 19:15:00,
2013-04-10 15:18:00,68.5,48.6,29.87,ESE,123,12.0,16.0,49,0.00,,---,0.00,VWS V14.01,2013-04-10 19:18:00,
2013-04-10 15:23:00,67.6,48.8,29.87,ESE,115,8.0,16.0,51,0.00,,---,0.00,VWS V14.01,2013-04-10 19:23:00,
2013-04-10 15:28:00,67.3,49.1,29.86,ESE,121,9.0,18.0,52,0.00,,---,0.00,VWS V14.01,2013-04-10 19:28:00,
2013-04-10 15:30:00,67.5,49.3,29.85,East,99,6.0,18.0,52,0.00,,---,0.00,VWS V14.01,2013-04-10 19:30:00,
2013-04-10 15:33:00,67.5,49.3,29.85,ESE,117,9.0,16.0,52,0.00,,---,0.00,VWS V14.01,2013-04-10 19:33:00,
2013-04-10 15:38:00,68.0,49.2,29.85,East,101,8.0,16.0,51,0.00,,---,0.00,VWS V14.01,2013-04-10 19:38:00,
2013-04-10 15:44:00,67.8,49.5,29.85,SE,144,9.0,17.0,52,0.00,,---,0.00,VWS V14.01,2013-04-10 19:44:00,
2013-04-10 15:45:00,67.9,49.7,29.85,SE,145,12.0,17.0,52,0.00,,---,0.00,VWS V14.01,2013-04-10 19:45:00,
2013-04-10 15:49:00,67.9,49.7,29.85,East,96,8.0,16.0,52,0.00,,---,0.00,VWS V14.01,2013-04-10 19:49:00,
2013-04-10 15:54:00,68.4,49.6,29.85,ESE,103,11.0,16.0,51,0.00,,---,0.00,VWS V14.01,2013-04-10 19:54:00,
2013-04-10 15:59:00,69.2,49.8,29.84,SE,130,12.0,16.0,50,0.00,,---,0.00,VWS V14.01,2013-04-10 19:59:00,
2013-04-10 16:00:00,69.3,49.9,29.84,ESE,121,7.0,16.0,50,0.00,,---,0.00,VWS V14.01,2013-04-10 20:00:00,
2013-04-10 16:04:00,69.6,50.2,29.84,SE,146,6.0,14.0,50,0.00,,---,0.00,VWS V14.01,2013-04-10 20:04:00,
2013-04-10 16:09:00,69.8,50.3,29.84,ESE,105,9.0,14.0,50,0.00,,---,0.00,VWS V14.01,2013-04-10 20:09:00,
2013-04-10 16:14:00,69.5,50.1,29.84,SE,125,9.0,18.0,50,0.00,,---,0.00,VWS V14.01,2013-04-10 20:14:00,
2013-04-10 16:15:00,69.4,50.0,29.84,East,94,11.0,18.0,50,0.00,,---,0.00,VWS V14.01,2013-04-10 20:15:00,
2013-04-10 16:20:00,69.0,50.1,29.84,ESE,122,10.0,14.0,51,0.00,,---,0.00,VWS V14.01,2013-04-10 20:20:00,
2013-04-10 16:25:00,69.1,50.2,29.83,SSE,165,6.0,14.0,51,0.00,,---,0.00,VWS V14.01,2013-04-10 20:25:00,
2013-04-10 16:30:00,69.4,50.0,29.84,SE,145,15.0,15.0,50,0.00,,---,0.00,VWS V14.01,2013-04-10 20:30:00,
2013-04-10 16:36:00,68.3,49.5,29.84,ESE,113,5.0,16.0,51,0.00,,---,0.00,VWS V14.01,2013-04-10 20:36:00,
2013-04-10 16:41:00,68.4,49.6,29.83,ESE,107,8.0,16.0,51,0.00,,---,0.00,VWS V14.01,2013-04-10 20:41:00,
2013-04-10 16:45:00,68.0,49.7,29.83,ESE,113,7.0,16.0,52,0.00,,---,0.00,VWS V14.01,2013-04-10 20:45:00,
2013-04-10 16:46:00,68.0,49.7,29.83,ESE,119,13.0,13.0,52,0.00,,---,0.00,VWS V14.01,2013-04-10 20:46:00,
2013-04-10 16:51:00,67.4,49.2,29.84,ESE,112,12.0,18.0,52,0.00,,---,0.00,VWS V14.01,2013-04-10 20:51:00,
2013-04-10 16:57:00,67.4,49.2,29.84,ESE,111,8.0,18.0,52,0.00,,---,0.00,VWS V14.01,2013-04-10 20:57:00,
2013-04-10 17:00:00,66.9,49.2,29.84,SE,132,11.0,18.0,53,0.00,,---,0.00,VWS V14.01,2013-04-10 21:00:00,
2013-04-10 17:02:00,66.8,49.1,29.84,SE,133,10.0,11.0,53,0.00,,---,0.00,VWS V14.01,2013-04-10 21:02:00,
2013-04-10 17:07:00,66.0,48.9,29.84,ESE,115,12.0,18.0,54,0.00,,---,0.00,VWS V14.01,2013-04-10 21:07:00,
2013-04-10 17:12:00,65.6,49.0,29.84,SSE,147,7.0,18.0,55,0.00,,---,0.00,VWS V14.01,2013-04-10 21:12:00,
2013-04-10 17:15:00,65.8,49.2,29.84,ESE,109,8.0,18.0,55,0.00,,---,0.00,VWS V14.01,2013-04-10 21:15:00,
2013-04-10 17:17:00,65.8,49.2,29.84,SE,129,7.0,8.0,55,0.00,,---,0.00,VWS V14.01,2013-04-10 21:17:00,
2013-04-10 17:22:00,65.4,49.3,29.84,SSE,148,8.0,13.0,56,0.00,,---,0.00,VWS V14.01,2013-04-10 21:22:00,
2013-04-10 17:28:00,64.7,48.7,29.83,SE,132,7.0,16.0,56,0.00,,---,0.00,VWS V14.01,2013-04-10 21:28:00,
2013-04-10 17:30:00,64.5,49.0,29.83,SE,134,8.0,17.0,57,0.00,,---,0.00,VWS V14.01,2013-04-10 21:30:00,
2013-04-10 17:33:00,64.6,49.0,29.83,ESE,122,3.0,10.0,57,0.00,,---,0.00,VWS V14.01,2013-04-10 21:33:00,
2013-04-10 17:38:00,64.5,50.3,29.83,ESE,122,7.0,15.0,60,0.00,,---,0.00,VWS V14.01,2013-04-10 21:38:00,
2013-04-10 17:43:00,63.5,50.3,29.84,ESE,115,3.0,15.0,62,0.00,,---,0.00,VWS V14.01,2013-04-10 21:43:00,
2013-04-10 17:45:00,63.3,50.1,29.84,SE,144,4.0,15.0,62,0.00,,---,0.00,VWS V14.01,2013-04-10 21:45:00,
2013-04-10 17:48:00,63.2,50.4,29.83,ESE,121,5.0,10.0,63,0.00,,---,0.00,VWS V14.01,2013-04-10 21:48:00,
2013-04-10 17:53:00,63.1,50.3,29.83,SE,126,6.0,10.0,63,0.00,,---,0.00,VWS V14.01,2013-04-10 21:53:00,
2013-04-10 17:59:00,62.9,49.7,29.83,SE,138,13.0,15.0,62,0.00,,---,0.00,VWS V14.01,2013-04-10 21:59:00,
2013-04-10 18:00:00,62.8,49.6,29.83,ESE,106,9.0,15.0,62,0.00,,---,0.00,VWS V14.01,2013-04-10 22:00:00,
2013-04-10 18:04:00,62.8,49.6,29.82,ESE,102,5.0,12.0,62,0.00,,---,0.00,VWS V14.01,2013-04-10 22:04:00,
2013-04-10 18:09:00,62.6,49.4,29.82,ESE,120,5.0,13.0,62,0.00,,---,0.00,VWS V14.01,2013-04-10 22:09:00,
2013-04-10 18:14:00,62.5,48.9,29.82,SSE,161,12.0,14.0,61,0.00,,---,0.00,VWS V14.01,2013-04-10 22:14:00,
2013-04-10 18:15:00,62.4,48.8,29.82,SE,125,6.0,14.0,61,0.00,,---,0.00,VWS V14.01,2013-04-10 22:15:00,
2013-04-10 18:19:00,62.4,49.2,29.82,SE,146,4.0,6.0,62,0.00,,---,0.00,VWS V14.01,2013-04-10 22:19:00,
2013-04-10 18:24:00,62.2,48.6,29.81,SE,135,5.0,12.0,61,0.00,,---,0.00,VWS V14.01,2013-04-10 22:24:00,
2013-04-10 18:29:00,62.1,48.5,29.81,SE,127,5.0,12.0,61,0.00,,---,0.00,VWS V14.01,2013-04-10 22:29:00,
2013-04-10 18:30:00,62.0,48.4,29.81,SE,132,6.0,14.0,61,0.00,,---,0.00,VWS V14.01,2013-04-10 22:30:00,
2013-04-10 18:34:00,61.8,48.2,29.81,ESE,109,7.0,8.0,61,0.00,,---,0.00,VWS V14.01,2013-04-10 22:34:00,
2013-04-10 18:39:00,61.6,48.0,29.81,ESE,121,5.0,10.0,61,0.00,,---,0.00,VWS V14.01,2013-04-10 22:39:00,
2013-04-10 18:45:00,61.4,48.3,29.81,SSE,148,7.0,12.0,62,0.00,,---,0.00,VWS V14.01,2013-04-10 22:45:00,
2013-04-10 18:50:00,61.2,48.1,29.81,East,93,7.0,9.0,62,0.00,,---,0.00,VWS V14.01,2013-04-10 22:50:00,
2013-04-10 18:55:00,61.1,48.0,29.83,ENE,68,3.0,10.0,62,0.00,,---,0.00,VWS V14.01,2013-04-10 22:55:00,
2013-04-10 19:00:00,61.2,48.1,29.92,North,11,11.0,20.0,62,0.00,,---,0.00,VWS V14.01,2013-04-10 23:00:00,
2013-04-10 19:06:00,61.3,48.2,29.90,NNE,22,10.0,22.0,62,0.00,,---,0.00,VWS V14.01,2013-04-10 23:06:00,
2013-04-10 19:11:00,62.4,49.2,29.91,NE,35,9.0,22.0,62,0.00,,---,0.00,VWS V14.01,2013-04-10 23:11:00,
2013-04-10 19:15:00,62.5,49.3,29.88,ENE,77,10.0,22.0,62,0.00,,---,0.00,VWS V14.01,2013-04-10 23:15:00,
2013-04-10 19:16:00,62.5,49.3,29.88,ENE,78,9.0,22.0,62,0.00,,---,0.00,VWS V14.01,2013-04-10 23:16:00,
2013-04-10 19:21:00,62.1,49.8,29.88,East,96,8.0,12.0,64,0.01,,---,0.01,VWS V14.01,2013-04-10 23:21:00,
2013-04-10 19:27:00,61.1,49.7,29.87,ENE,71,8.0,12.0,66,0.04,,---,0.04,VWS V14.01,2013-04-10 23:27:00,
2013-04-10 19:30:00,59.8,50.4,29.86,ESE,115,3.0,12.0,71,0.08,,---,0.08,VWS V14.01,2013-04-10 23:30:00,
2013-04-10 19:32:00,59.4,50.4,29.86,ESE,105,8.0,9.0,72,0.09,,---,0.09,VWS V14.01,2013-04-10 23:32:00,
2013-04-10 19:37:00,58.3,50.8,29.85,ESE,115,3.0,10.0,76,0.13,,---,0.13,VWS V14.01,2013-04-10 23:37:00,
2013-04-10 19:42:00,57.7,50.9,29.83,SE,144,8.0,11.0,78,0.16,,---,0.16,VWS V14.01,2013-04-10 23:42:00,
2013-04-10 19:45:00,57.5,51.4,29.83,SE,138,5.0,11.0,80,0.17,,---,0.17,VWS V14.01,2013-04-10 23:45:00,
2013-04-10 19:47:00,57.5,51.4,29.83,SE,131,3.0,6.0,80,0.17,,---,0.17,VWS V14.01,2013-04-10 23:47:00,
2013-04-10 19:53:00,57.4,51.6,29.82,SE,136,7.0,7.0,81,0.17,,---,0.17,VWS V14.01,2013-04-10 23:53:00,
2013-04-10 19:58:00,57.6,51.8,29.82,SE,141,10.0,11.0,81,0.18,,---,0.18,VWS V14.01,2013-04-10 23:58:00,
2013-04-10 20:00:00,57.5,51.7,29.80,SSE,147,7.0,13.0,81,0.19,,---,0.19,VWS V14.01,2013-04-11 00:00:00,
2013-04-10 20:03:00,57.4,51.6,29.81,SSE,153,4.0,11.0,81,0.19,,---,0.19,VWS V14.01,2013-04-11 00:03:00,
2013-04-10 20:08:00,57.1,51.7,29.82,East,82,5.0,11.0,82,0.20,,---,0.20,VWS V14.01,2013-04-11 00:08:00,
2013-04-10 20:13:00,56.7,51.3,29.82,SSE,157,11.0,12.0,82,0.20,,---,0.20,VWS V14.01,2013-04-11 00:13:00,
2013-04-10 20:15:00,56.4,51.0,29.83,South,171,3.0,14.0,82,0.20,,---,0.20,VWS V14.01,2013-04-11 00:15:00,
2013-04-10 20:18:00,56.2,50.8,29.83,SSE,151,4.0,10.0,82,0.20,,---,0.20,VWS V14.01,2013-04-11 00:18:00,
2013-04-10 20:24:00,56.3,50.9,29.83,SE,125,4.0,10.0,82,0.20,,---,0.20,VWS V14.01,2013-04-11 00:24:00,
2013-04-10 20:29:00,56.4,51.3,29.81,SSE,153,9.0,11.0,83,0.20,,---,0.20,VWS V14.01,2013-04-11 00:29:00,
2013-04-10 20:30:00,56.3,51.2,29.80,SSE,165,6.0,11.0,83,0.20,,---,0.20,VWS V14.01,2013-04-11 00:30:00,
2013-04-10 20:34:00,56.2,51.1,29.81,SE,124,12.0,12.0,83,0.13,,---,0.21,VWS V14.01,2013-04-11 00:34:00,
2013-04-10 20:39:00,56.2,51.4,29.80,ESE,116,5.0,15.0,84,0.13,,---,0.21,VWS V14.01,2013-04-11 00:39:00,
2013-04-10 20:44:00,56.0,50.9,29.81,East,93,7.0,15.0,83,0.13,,---,0.21,VWS V14.01,2013-04-11 00:44:00,
2013-04-10 20:45:00,55.9,50.8,29.82,NE,50,6.0,15.0,83,0.13,,---,0.21,VWS V14.01,2013-04-11 00:45:00,
2013-04-10 20:49:00,55.8,50.7,29.83,ENE,74,4.0,10.0,83,0.04,,---,0.21,VWS V14.01,2013-04-11 00:49:00,
2013-04-10 20:54:00,55.8,50.7,29.85,SE,124,5.0,10.0,83,0.04,,---,0.21,VWS V14.01,2013-04-11 00:54:00,
2013-04-10 21:00:00,55.8,50.7,29.85,East,96,2.0,10.0,83,0.04,,---,0.21,VWS V14.01,2013-04-11 01:00:00,
2013-04-10 21:05:00,55.7,50.6,29.85,North,9,0.0,1.0,83,0.02,,---,0.21,VWS V14.01,2013-04-11 01:05:00,
2013-04-10 21:10:00,55.7,50.6,29.84,NNE,32,3.0,4.0,83,0.02,,---,0.21,VWS V14.01,2013-04-11 01:10:00,
2013-04-10 21:15:00,55.6,50.5,29.83,ENE,65,2.0,6.0,83,0.02,,---,0.21,VWS V14.01,2013-04-11 01:15:00,
2013-04-10 21:20:00,55.6,50.5,29.82,ENE,65,3.0,5.0,83,0.01,,---,0.21,VWS V14.01,2013-04-11 01:20:00,
2013-04-10 21:26:00,55.7,51.0,29.82,ENE,77,1.0,5.0,84,0.01,,---,0.21,VWS V14.01,2013-04-11 01:26:00,
2013-04-10 21:30:00,55.7,51.0,29.82,ENE,72,0.0,5.0,84,0.01,,---,0.21,VWS V14.01,2013-04-11 01:30:00,
2013-04-10 21:31:00,55.7,51.0,29.82,ENE,72,0.0,0.0,84,0.01,,---,0.21,VWS V14.01,2013-04-11 01:31:00,
2013-04-10 21:36:00,55.7,51.0,29.81,ENE,72,0.0,0.0,84,0.01,,---,0.21,VWS V14.01,2013-04-11 01:36:00,
2013-04-10 21:41:00,55.6,50.8,29.78,East,84,6.0,7.0,84,0.01,,---,0.21,VWS V14.01,2013-04-11 01:41:00,
2013-04-10 21:45:00,55.5,50.8,29.78,SE,130,6.0,9.0,84,0.01,,---,0.21,VWS V14.01,2013-04-11 01:45:00,
2013-04-10 21:46:00,55.4,50.7,29.78,ESE,107,5.0,6.0,84,0.00,,---,0.21,VWS V14.01,2013-04-11 01:46:00,
2013-04-10 21:51:00,55.3,50.6,29.79,North,355,4.0,10.0,84,0.00,,---,0.21,VWS V14.01,2013-04-11 01:51:00,
2013-04-10 21:57:00,55.3,50.6,29.80,NE,53,1.0,10.0,84,0.00,,---,0.21,VWS V14.01,2013-04-11 01:57:00,
2013-04-10 22:00:00,55.3,50.9,29.80,NE,52,0.0,10.0,85,0.00,,---,0.21,VWS V14.01,2013-04-11 02:00:00,
2013-04-10 22:02:00,55.3,50.9,29.80,NE,47,0.0,5.0,85,0.00,,---,0.21,VWS V14.01,2013-04-11 02:02:00,
2013-04-10 22:07:00,55.3,50.9,29.82,NW,321,18.0,21.0,85,0.00,,---,0.21,VWS V14.01,2013-04-11 02:07:00,
2013-04-10 22:12:00,56.4,52.0,29.89,NNE,13,2.0,33.0,85,0.01,,---,0.22,VWS V14.01,2013-04-11 02:12:00,
2013-04-10 22:15:00,57.0,52.5,29.90,NNW,346,8.0,33.0,85,0.01,,---,0.22,VWS V14.01,2013-04-11 02:15:00,
2013-04-10 22:17:00,57.1,52.6,29.89,North,360,10.0,13.0,85,0.01,,---,0.22,VWS V14.01,2013-04-11 02:17:00,
2013-04-10 22:22:00,57.0,52.5,29.90,NNE,19,7.0,14.0,85,0.05,,---,0.26,VWS V14.01,2013-04-11 02:22:00,
2013-04-10 22:27:00,56.9,52.4,29.90,NNW,336,4.0,14.0,85,0.08,,---,0.29,VWS V14.01,2013-04-11 02:27:00,
2013-04-10 22:30:00,56.9,52.8,29.90,NW,322,5.0,14.0,86,0.10,,---,0.31,VWS V14.01,2013-04-11 02:30:00,
2013-04-10 22:32:00,56.9,52.8,29.90,NW,309,3.0,5.0,86,0.11,,---,0.32,VWS V14.01,2013-04-11 02:32:00,
2013-04-10 22:38:00,57.0,53.2,29.90,NW,307,0.0,7.0,87,0.13,,---,0.34,VWS V14.01,2013-04-11 02:38:00,
2013-04-10 22:43:00,57.0,53.2,29.90,NW,307,0.0,7.0,87,0.14,,---,0.35,VWS V14.01,2013-04-11 02:43:00,
2013-04-10 22:45:00,57.0,53.2,29.89,NW,307,0.0,7.0,87,0.14,,---,0.35,VWS V14.01,2013-04-11 02:45:00,
2013-04-10 22:48:00,57.1,53.3,29.89,NW,307,2.0,2.0,87,0.15,,---,0.36,VWS V14.01,2013-04-11 02:48:00,
2013-04-10 22:53:00,57.1,53.6,29.89,NW,307,0.0,4.0,88,0.16,,---,0.37,VWS V14.01,2013-04-11 02:53:00,
2013-04-10 22:58:00,56.9,53.4,29.90,NW,307,0.0,4.0,88,0.16,,---,0.37,VWS V14.01,2013-04-11 02:58:00,
2013-04-10 23:00:00,56.9,53.4,29.89,NW,307,1.0,4.0,88,0.17,,---,0.38,VWS V14.01,2013-04-11 03:00:00,
2013-04-10 23:03:00,57.0,53.5,29.89,NW,307,0.0,0.0,88,0.18,,---,0.39,VWS V14.01,2013-04-11 03:03:00,
2013-04-10 23:08:00,57.0,53.5,29.89,NW,307,0.0,0.0,88,0.19,,---,0.40,VWS V14.01,2013-04-11 03:08:00,
2013-04-10 23:13:00,57.0,53.8,29.89,NW,307,0.0,1.0,89,0.20,,---,0.41,VWS V14.01,2013-04-11 03:13:00,
2013-04-10 23:15:00,57.0,53.8,29.89,NW,307,0.0,1.0,89,0.20,,---,0.41,VWS V14.01,2013-04-11 03:15:00,
2013-04-10 23:19:00,57.0,53.8,29.89,NW,307,0.0,0.0,89,0.20,,---,0.42,VWS V14.01,2013-04-11 03:19:00,
2013-04-10 23:24:00,57.0,53.8,29.88,NW,307,0.0,3.0,89,0.21,,---,0.43,VWS V14.01,2013-04-11 03:24:00,
2013-04-10 23:29:00,57.1,54.2,29.87,SE,145,4.0,4.0,90,0.23,,---,0.45,VWS V14.01,2013-04-11 03:29:00,
2013-04-10 23:30:00,57.1,54.2,29.87,SE,145,3.0,4.0,90,0.24,,---,0.46,VWS V14.01,2013-04-11 03:30:00,
2013-04-10 23:34:00,57.2,54.3,29.87,SSE,155,0.0,4.0,90,0.16,,---,0.47,VWS V14.01,2013-04-11 03:34:00,
2013-04-10 23:40:00,57.3,54.4,29.86,South,169,3.0,5.0,90,0.17,,---,0.48,VWS V14.01,2013-04-11 03:40:00,
2013-04-10 23:45:00,57.4,54.8,29.84,ESE,123,4.0,8.0,91,0.18,,---,0.49,VWS V14.01,2013-04-11 03:45:00,
2013-04-10 23:50:00,57.5,54.9,29.82,SE,134,8.0,8.0,91,0.16,,---,0.51,VWS V14.01,2013-04-11 03:50:00,
2013-04-10 23:55:00,57.5,54.9,29.82,South,172,3.0,10.0,91,0.16,,---,0.51,VWS V14.01,2013-04-11 03:55:00,